Current Version              Previous Version:    01  02  03  04  05  06  07  08  09  10  11  12  13  14  15  16  17  18  19  20  21  22  23  24  25  26  27  28  29  30  
   31  32  33  34  35  36  37  38  39  40  41  42  43  44  45  46  47  48  49  50  51  52  53  54  55  56  57  58  59  60  

[Printable]
265
ASUS44 KLUB 270701
RWRTX
WEST TEXAS WEATHER ROUNDUP
NATIONAL WEATHER SERVICE LUBBOCK TX
100 AM CST THU NOV 27 2014

NOTE: "FAIR" INDICATES FEW OR NO CLOUDS BELOW 12,000 FEET WITH NO
SIGNIFICANT WEATHER AND/OR OBSTRUCTIONS TO VISIBILITY.

TXZ004-006>008-010-012-014-016-OKZ002-270800-
TEXAS PANHANDLE/OKLAHOMA PANHANDLE

CITY           SKY/WX    TMP DP  RH WIND       PRES   REMARKS
AMARILLO       CLEAR     31  21  66 SE7       30.41R WCI  24
BORGER         CLEAR     34  20  56 CALM      30.43R
CANADIAN       CLEAR     26  19  77 CALM      30.45R
DALHART        CLEAR     29  19  66 S5        30.41R WCI  24
DUMAS            N/A     28  18  66 SE6       30.40S WCI  22
GUYMON         CLEAR     27  17  66 S5        30.41R WCI  22
HEREFORD       CLEAR     28  23  81 CALM      30.40S
$$

TXZ026-029-035-045-048-270800-
SOUTHERN PANHANDLE/SOUTH PLAINS/ROLLING PLAINS

CITY           SKY/WX    TMP DP  RH WIND       PRES   REMARKS
CHILDRESS      CLEAR     39  22  50 E5        30.45R
LUBBOCK        PTCLDY    33  23  66 E6        30.40S WCI  28
$$

TXZ052-054-060>062-072-078-127-140-154-169-270800-
PERMIAN BASIN/CONCHO VALLEY/BIG COUNTRY/EDWARDS PLATEAU

CITY           SKY/WX    TMP DP  RH WIND       PRES   REMARKS
ABILENE        CLEAR     43  33  68 E3        30.41S
JUNCTION       CLEAR     37  30  75 W5        30.38R WCI  33
MIDLAND        CLEAR     42  31  64 E6        30.39R
ODESSA         CLEAR     43  30  60 E8        30.39R
SAN ANGELO     CLEAR     41  33  73 CALM      30.40R
WINK           CLEAR     37  24  59 N5        30.36R WCI  33
$$

TXZ055-058-074-075-080-082-270800-
FAR WEST/SOUTHWEST MOUNTAINS/TRANS PECOS

CITY           SKY/WX    TMP DP  RH WIND       PRES   REMARKS
DRYDEN           N/A     50  29  44 N12       30.34S
EL PASO        PTCLDY    40  19  43 E3        30.34R
FORT STOCKTON  CLEAR     44  25  47 SE8       30.36R
MARFA          CLEAR     30  18  59 N6        30.39S WCI  24
$$

TXZ014-016-019-021>030-083-270800
TEXAS TECH WEST TEXAS MESONET/TEXAS PANHANDLE/NORTHERN SOUTH PLAINS

CITY           SKY/WX    TMP DP  RH WIND       PRES   REMARKS
ABERNATHY 5ENE   N/A     32  24  73 E5        30.41S WCI  28
AMARILLO 9NNE    N/A     28  22  78 S2        30.41R
AMARILLO 7SSE    N/A     27  20  73 SE3       30.41S
AMHERST 1NE      N/A     33  24  68 SE5       30.41S WCI  28
BOOTLEG 11WNW    N/A     31  22  68 S12       30.40S WCI  22
CANADIAN 6E      N/A     25  14  64 N2        30.43S
CAPROCK CYN SP   N/A     30  24  76 CALM      30.44R
CHILDRESS 2NNE   N/A     37  22  56 NE7       30.44R WCI  31
CLARENDON 2WSW   N/A     27  19  70 CALM      30.42R
CLAUDE 12SW      N/A     33  20  57 SE8       30.40F WCI  27
DIMMITT 2NE      N/A     31  21  67 SE7       30.40R WCI  24
FLOYDADA 2NNE    N/A     30  22  74 E7        30.41S WCI  23
FRIONA 2NE       N/A     29  22  73 S7        30.40S WCI  22
GOODLETT 3W      N/A     33  24  69 N6        30.44R WCI  27
HART 3N          N/A     28  22  77 E5        30.40R WCI  23
HEREFORD 2NW     N/A     31  22  67 S3        30.39S
MCLEAN 1E        N/A     33  18  55 NE8       30.41R WCI  26
MEMPHIS 1NE      N/A     31  22  70 N3        30.44S
MULESHOE 2SSW    N/A     24  20  87 SE2       30.40F
OLTON 6S         N/A     32  22  68 SE8       30.40F WCI  25
PALO DURO SP     N/A     34  21  59 SE1       30.41F
PAMPA 2E         N/A     24  17  74 E5        30.42R WCI  18
PLAINVIEW 1S     N/A     33  24  69 E2        30.40S
SILVERTON 7ESE   N/A     31  20  64 E6        30.43R WCI  25
TULIA 2ENE       N/A     29  24  81 E7        30.41R WCI  22
TURKEY 2WSW      N/A     40  23  50 CALM      30.43S
UMBARGER 3NNE    N/A     31  22  68 SE8       30.39F WCI  24
$$

TXZ033>036-039>041-045>048-270800
TEXAS TECH WEST TEXAS MESONET/SOUTH PLAINS

CITY           SKY/WX    TMP DP  RH WIND       PRES   REMARKS
AIKEN 3WSW       N/A     30  21  69 E8        30.42S WCI  22
ANDREWS 2NE      N/A     39  30  70 E5        30.40R
ANTON 6SSW       N/A     33  25  73 E5        30.41S WCI  28
BROWNFIELD 2S    N/A     36  28  73 E5        30.41R WCI  32
DENVR CTY 7WNW   N/A     36  28  73 E6        30.40R WCI  31
GAIL 2ESE        N/A     37  32  81 NW1       30.41S
LAMESA 2SE       N/A     39  32  76 E2        30.41S
LEVELLAND 4S     N/A     33  24  70 E6        30.40S WCI  28
LUBBOCK 3WNW     N/A     38  25  59 E5        30.41F WCI  34
MORTON 1ENE      N/A     31  24  76 SE2       30.40S
ODONNELL 1N      N/A     36  30  80 NE5       30.41R WCI  32
PLAINS 3N        N/A     35  27  70 E6        30.41R WCI  30
RALLS 1SE        N/A     33  22  64 E5        30.42F WCI  28
REESE CENTER     N/A     35  24  66 E7        30.40F WCI  29
SEAGRAVES 1SW    N/A     37  29  74 E3        30.41R
SEMINOLE 2NNE    N/A     37  29  75 E6        30.41R WCI  32
SLATON 2NE       N/A     38  25  58 E3        30.41F
SNYDER 3E        N/A     42  34  73 E7        30.41R
SUNDOWN 8SW      N/A     33  25  73 E7        30.40S WCI  26
TAHOKA 3NNE      N/A     35  26  70 E8        30.40S WCI  28
WOLFFORTH 6SSW   N/A     33  25  72 E6        30.41S WCI  28
$$

TXZ031-032-036>038-042>044-270800-
TEXAS TECH WEST TEXAS MESONET/ROLLING PLAINS

CITY           SKY/WX    TMP DP  RH WIND       PRES   REMARKS
ASPERMONT 3NE    N/A     33  31  92 NW1       30.43S
FLUVANNA 3WNW    N/A     39  32  75 E7        30.41R WCI  34
GRAHAM 5SSW      N/A     41  29  61 E3        30.41S
GUTHRIE 10WSW    N/A     39  25  57 N1        30.43R
HASKELL 1NW      N/A     38  33  81 NE6       30.42S WCI  34
JAYTON 1SSE      N/A     40  29  63 N6        30.42S
KNOX CITY 3NW    N/A     32  29  88 CALM      30.43S
LK A HENRY 1NW   N/A     37  30  74 N5        30.42R WCI  34
NORTHFIELD 1S    N/A     34  25  68 CALM      30.44R
ODELL 4ENE       N/A     37  25  62 NE8       30.46R WCI  31
PADUCAH 10SW     N/A     39  24  56 N5        30.43R
POST 1NE         N/A     36  27  70 N5        30.42R WCI  32
RRING SPRGS 3N   N/A     39  24  53 NE5       30.43R
SEYMOUR 3NW      N/A     37  30  75 NE8       30.44S WCI  31
SPUR 1W          N/A     32  25  74 N5        30.42R WCI  27
WEINERT 2NNE     N/A     35  31  85 NE2       30.43S
WHITE RVR 6NE    N/A     38  23  53 NE5       30.42S WCI  35
$$

TXZ052-054-060>062-072-078-127-140-154-169-270800-
TEXAS TECH WEST TEXAS MESONET/PERMIAN BASIN/
CONCHO VALLEY/BIG COUNTRY/EDWARDS PLATEAU

CITY           SKY/WX    TMP DP  RH WIND       PRES   REMARKS
COYANOSA 2N      N/A     39  26  59 E5        30.37R
JUNCTION 1SSW    N/A     32  28  83 NW1       30.39R
MERTZON 3NNE     N/A     32  28  85 CALM      30.41R
SAN ANGELO 7NW   N/A     39  32  75 W1        30.40R
STRLNG CT 4WSW   N/A     33  29  86 N1        30.41R
ST LAWRNCE 5SW   N/A     40  31  69 E8        30.39R WCI  35
SWEETWATR 11SW   N/A     42  32  69 E10       30.41R
WALL 1E          N/A     36  30  77 E3        30.40S
$$

TXZ055-058-074-075-080-082-270800-
TEXAS TECH WEST TEXAS MESONET/FAR WEST/SOUTHWEST MOUNTAINS/TRANS PECOS

CITY           SKY/WX    TMP DP  RH WIND       PRES   REMARKS
PRSMN GAP BBNP   N/A     53  20  27 NE10      30.33S
GUADLPE MTN NP   N/A     40  21  46 N5        30.40S
$$